Regional Weather Roundup
Issued by NWS

Home | Current Version | Previous Version | Text Only | Print | Product List | Glossary On
Versions: 1 2 3 4 5 6 7 8 9 10 11 12 13 14 15 16 17 18 19 20 21 22 23 24 25 26 27 28 29 30 31 32 33 34 35 36 37 38 39 40 41 42 43 44 45 46 47 48 49 50
484
ASUS44 KJAN 170403
RWRMS

MISSISSIPPI HOURLY WEATHER ROUNDUP
NATIONAL WEATHER SERVICE JACKSON MS
1100 PM CDT TUE SEP 16 2014

NOTE: "FAIR: INDICATES FEW OR NO CLOUDS BELOW 12,000 FEET WITH NO
SIGNIFICANT WEATHER AND/OR OBSTRUCTIONS TO VISIBILITY.

MSZ001>002-007>008-010>013-018>021-025>028-034>036-170500-
NORTHWEST MISSISSIPPI

CITY           SKY/WX    TMP DP  RH WIND       PRES   REMARKS
CLARKSDALE     FAIR      68  68 100 CALM      30.05F
CLEVELAND      FAIR      71  69  93 NE5       30.03F
GREENWOOD      CLEAR     73  70  90 N6        30.04R
GREENVILLE     CLEAR     74  67  78 N7        30.03S
GRENADA        FAIR      70  68  94 CALM      30.05S
OLIVE BRANCH   CLEAR     64  64 100 NE7       30.07F
OXFORD         FAIR      66  64  94 CALM      30.07F
TUNICA         PTCLDY    68  64  88 N6        30.07R
$$

MSZ003>006-009-014>017-022>024-029>033-037>039-170500-
NORTHEAST MISSISSIPPI

CITY           SKY/WX    TMP DP  RH WIND       PRES   REMARKS
COLUMBUS AFB   CLEAR     74  69  85 N5        30.03R
CORINTH          N/A     66  61  82 CALM      30.06S
GOLDN TRIANGLE CLEAR     75  66  73 N6        30.03R
STARKVILLE     FAIR      73  70  88 N3        30.03S
TUPELO         MOCLDY    70  66  87 NE6       30.05R
$$

MSZ040-058-170500-
CENTRAL MISSISSIPPI

CITY           SKY/WX    TMP DP  RH WIND       PRES   REMARKS
JACKSON INTL   CLEAR     74  69  85 CALM      30.03R
JACKSON HAWKNS MOCLDY    77  69  76 CALM      30.03S
MERIDIAN KEY   PTCLDY    72  69  90 CALM      30.02S
MERIDIAN NAS   PTCLDY    74  69  85 W3        30.02R
RAYMOND        FAIR      73  68  83 CALM      30.03R
VICKSBURG      PTCLDY    72  69  90 CALM      30.02R
$$

MSZ059>079-170500-
SOUTH MISSISSIPPI

CITY           SKY/WX    TMP DP  RH WIND       PRES   REMARKS
BROOKHAVEN     FAIR      73  72  94 CALM      30.05F
HATTIESBURG    MOCLDY    72  70  93 W3        30.04F
MCCOMB         MOCLDY    73  71  93 CALM      30.03F
NATCHEZ        PTCLDY    75  72  88 SW5       30.04S
PINE BELT      MOCLDY    72  66  83 CALM      30.05S
$$

MSZ080>082-170500-
COASTAL MISSISSIPPI

CITY           SKY/WX    TMP DP  RH WIND       PRES   REMARKS
BILOXI         CLOUDY    74  72  94 N2        30.01F
PASCAGOULA     CLOUDY    73  72  96 N6        30.01F
GULFPORT       CLOUDY    74  72  93 N3        30.02S
$$



USA.gov is the U.S. government's official web portal to all federal, state and local government web resources and services.